Location: Newark
(35.8833°N, 14.5000°E)
Time: 18:51:27
(UTC+00:00)

PCSat - Visible Passes

Search period start: 03 August 2020 00:00
Search period end: 13 August 2020 00:00
Orbit: 785 x 794 km, 67.1° (Epoch: 02 August)

Date Brightness Start Highest point End Pass type
(mag) Time Alt. Az. Time Alt. Az. Time Alt. Az.
03 Aug 11.9 03:42:09 10° SSE 03:46:18 23° ESE 03:50:28 10° NE visible
04 Aug 12.1 03:12:19 10° SE 03:15:29 16° ESE 03:18:38 10° ENE visible
05 Aug 12.5 02:43:49 10° ESE 02:44:42 10° ESE 02:45:34 10° E visible
07 Aug 10.5 03:20:12 10° S 03:25:22 49° ESE 03:30:35 10° NE visible
08 Aug 11.0 02:49:39 10° S 02:54:28 34° ESE 02:59:19 10° NE visible
09 Aug 11.5 02:19:22 10° SSE 02:23:36 24° ESE 02:27:52 10° NE visible
10 Aug 11.9 01:49:30 10° SE 01:52:47 17° ESE 01:56:06 10° ENE visible
10 Aug 9.8 03:30:20 10° SW 03:35:38 56° WNW 03:40:59 10° NNE visible
11 Aug 12.1 01:20:34 10° ESE 01:21:59 11° ESE 01:23:25 10° E visible
11 Aug 9.5 03:00:38 19° SSW 03:04:36 80° WNW 03:10:03 10° NNE visible
12 Aug 9.7 02:30:58 31° SSW 02:33:38 74° ESE 02:39:02 10° NNE visible
